IRIDIUM 33 DEB, 36028

Orbit data source: Space-Track

IRIDIUM 33 DEB, 36028 is space debris in LEO originally from a launch on Sun, 14 Sep 1997 UTC launched from the Tyuratam Missile And Space Complex (TTMTR). The debris from Iridium 33, an American commercial communications satellite, has been tracked extensively since its accidental collision with the defunct Russian satellite Cosmos 2251 in 2009. This event, occurring at high speed in low Earth orbit (LEO), generated thousands of pieces of space debris, significantly increasing the risk of further collisions. The Iridium 33 debris cloud has impacted space traffic management and orbital debris mitigation strategies, making it a subject of ongoing study in space situational awareness.

Loading next visibility...
Identifier
36028, 1997-051VK
Orbit
LEO
Country
Flag of USUS
Related business
Manufacturer
Unknown
Mission
Spacecraft
Bus & Motor
Unknown
Mass
Unknown
Launch date (UTC)
1997-09-14 (28 years ago)
Launch vehicle
Unknown
Launch site
Tyuratam Missile And Space Complex (TTMTR)
Object type
Payload
Rocket body
Debris
Shape & HBR
Unknown shape, 0.1 m
Radar Cross Section
Small (<0.1 m²)

Expand to show TLE details & history
Last TLE update: 2 days ago

TLE from 2 days ago
0 IRIDIUM 33 DEB
1 36028U 97051VK  26060.88947523  .00025841  00000-0  20734-2 0  9999
2 36028  86.3146 269.3331 0017594 119.5716 240.7272 14.99842236883092
Epoch: 2026-03-01T21:20Z
TLE epoch observation values (Epoch: 2026-03-01T21:20:50.659Z)
Latitude
-0.00007°
Longitude
149.43125°
Altitude
576.519 km
Speed
7.569 km/s
True Right ascension
17h 57m 19s
True Declination
0° 00' 00"
Sunlit
Object was in daylight at epoch
Visualization orbit readout
Latitude
Unknown
Longitude
Unknown
Altitude
Unknown
Speed
Unknown
Apparent Right ascension
Unknown
Apparent Declination
Unknown
Sunlit
N/A
Visualization observer readout
Local Sidereal Time
19:02:37
Azimuth
Unknown
Elevation
Unknown
Doppler factor
Unknown
Orbital elements
Apogee altitude
576.472 km
Perigee altitude
552.043 km
Semi-major axis
6,942.394 km
Eccentricity
0.00176
Inclination
86.3146°
RAAN
269.3331°
Arg. of periapsis
119.5716°
True anomaly
240.55152°
Mean anomaly
240.7272°
Eccentric anomaly
240.63934°
Mean motion
3.75214 °/min
Orbital period
95.95 mins
BSTAR
0.0020734
Loading maneuver chart data...
Computing Atmospheric mass density...
Loading historical data...
Loading historical data...
Loading historical data...
Loading historical data...
Loading historical data...
Loading historical data...
Loading historical data...

Documentation

Showing up to 5 results
|